This demonstration page uses our WeatherBlox Daily Observations layout. Learn more.

Left ArrowRight Arrow

39.01783, -85.05884

Hourly Observations for May 14, 2018

Temp ( °F °C ) Dew Point ( °F °C ) Humidity (%) Winds ( mph kmh ) Pressure ( in mb ) Visibility ( mi km ) Precip ( " mm )
12:52 am 00:52 Clear 74 23.3 64 17.8 71 71 SSW 8 13 29.93 1014 10 16 0.00 0.00
1:52 am 01:52 Clear 73 22.8 63 17.2 71 71 SW 8 13 29.95 1014 10 16 0.00 0.00
2:52 am 02:52 Mostly Clear 71 21.7 63 17.2 76 76 SSW 7 11 29.95 1014 10 16 0.00 0.00
3:52 am 03:52 Partly Cloudy 70 21.1 63 17.2 79 79 SW 5 7 29.96 1014 10 16 0.00 0.00
4:52 am 04:52 Clear 69 20.6 63 17.2 81 81 SW 3 6 29.96 1015 10 16 0.00 0.00
5:52 am 05:52 Mostly Clear 68 20 63 17.2 84 84 SW 3 6 29.96 1015 10 16 0.00 0.00
6:52 am 06:52 Mostly Sunny 68 20 63 17.2 84 84 SW 6 9 29.96 1015 10 16 0.00 0.00
7:52 am 07:52 Mostly Sunny 71 21.7 64 17.8 79 79 SSW 5 7 29.97 1015 7 11 0.00 0.00
8:52 am 08:52 Mostly Sunny 76 24.4 64 17.8 67 67 W 7 11 29.98 1015 9 14 0.00 0.00
9:52 am 09:52 Mostly Sunny 79 26.1 65 18.3 62 62 W 9 15 29.99 1016 10 16 0.00 0.00
10:52 am 10:52 Mostly Sunny 82 27.8 66 18.9 58 58 W 12 19 29.99 1016 10 16 0.00 0.00
11:52 am 11:52 Partly Cloudy 85 29.4 66 18.9 53 53 W 10 17 29.99 1016 10 16 0.00 0.00
12:52 pm 12:52 Mostly Cloudy 87 30.6 66 18.9 50 50 VRB 5 7 29.99 1016 10 16 0.00 0.00
1:52 pm 13:52 Mostly Cloudy 87 30.6 65 18.3 48 48 W 9 15 29.97 1015 10 16 0.00 0.00
2:52 pm 14:52 Partly Cloudy 88 31.1 63 17.2 43 43 SW 9 15 29.93 1014 10 16 0.00 0.00
3:52 pm 15:52 Mostly Sunny 87 30.6 65 18.3 48 48 N 8 13 29.91 1013 10 16 0.00 0.00
4:52 pm 16:52 Mostly Sunny 88 31.1 63 17.2 43 43 SSW 9 15 29.88 1012 10 16 0.00 0.00
5:52 pm 17:52 Mostly Sunny 88 31.1 60 15.6 39 39 SW 12 19 29.87 1012 10 16 0.00 0.00
6:52 pm 18:52 Mostly Sunny 86 30 61 16.1 43 43 SSW 12 19 29.86 1011 10 16 0.00 0.00
7:52 pm 19:52 Sunny 83 28.3 60 15.6 46 46 SSW 8 13 29.84 1011 10 16 0.00 0.00
8:52 pm 20:52 Clear 80 26.7 61 16.1 52 52 SSW 7 11 29.85 1011 10 16 0.00 0.00
9:52 pm 21:52 Clear 78 25.6 62 16.7 58 58 SW 6 9 29.88 1012 10 16 0.00 0.00
10:52 pm 22:52 Clear 74 23.3 63 17.2 69 69 SSW 6 9 29.88 1012 10 16 0.00 0.00
11:52 pm 23:52 Clear 72 22.2 63 17.2 73 73 SSW 6 9 29.86 1011 10 16 0.00 0.00

Powered by AerisWeather